STARLINK-35961

Last updated on Fri Dec 19 2025 00:02:05 GMT+0000 (Coordinated Universal Time)

1 66530U 25265Q 25352.41585632 .00040819 00000+0 97825-3 0 9996 2 66530 42.9995 21.2618 0000369 289.4912 70.5904 15.40729276 4634
UTC large
Height (km)
Speed (km/s)
/
Latitude / Longitude
Inclination (degrees)
Orbital Period (minutes)
Azimuth
Elevation
Range (km)
Doppler Factor

Next 0 passes for location: London (51.5072 / 0.1276)

Sorry there are no passes over London.